CZ-6A DEB, 56259

Orbit data source: Space-Track

CZ-6A DEB, 56259 is space debris in SSO originally from a launch on Fri, 11 Nov 2022 UTC launched from the Taiyaun Space Center, China (TSC). Debris objects in space refer to the collection of defunct objects orbiting the Earth. Examples of debris include non-operational satellites, rocket bodies, and fragments generated from explosions, collisions, or faulty payload assembly.

Loading next visibility...
Identifier
56259, 2022-151ACB
Orbit
SSO
Country
Flag of CNCN / PRC
Related business
Manufacturer
SAST
Mission
Spacecraft
Bus & Motor
Unknown
Mass
Unknown
Launch date (UTC)
2022-11-11 (4 years ago)
Launch vehicle
Unknown
Launch site
Taiyaun Space Center, China (TSC)
Object type
Payload
Rocket body
Debris
Shape & HBR
Unknown shape, 0.1 m
Radar Cross Section
Small (<0.1 m²)

Expand to show TLE details & history
Last TLE update: 2 weeks ago

TLE from 2 weeks ago
0 CZ-6A DEB
1 56259U 22151ACB 26222.82991661  .00001219  00000-0  61303-3 0  9993
2 56259  98.8297 225.8191 0047569 174.8942 185.2728 14.17739660180844
Epoch: 2026-08-10T19:55Z
TLE epoch observation values (Epoch: 2026-08-10T19:55:04.795Z)
Latitude
0.00004°
Longitude
-32.25782°
Altitude
870.081 km
Speed
7.4 km/s
True Right ascension
15h 03m 16s
True Declination
0° 00' 00"
Sunlit
Object was in daylight at epoch
Visualization orbit readout
Latitude
Unknown
Longitude
Unknown
Altitude
Unknown
Speed
Unknown
Apparent Right ascension
Unknown
Apparent Declination
Unknown
Sunlit
N/A
Visualization observer readout
Local Sidereal Time
00:46:57
Azimuth
Unknown
Elevation
Unknown
Doppler factor
Unknown
Orbital elements
Apogee altitude
864.464 km
Perigee altitude
795.885 km
Semi-major axis
7,208.312 km
Eccentricity
0.00476
Inclination
98.8297°
RAAN
225.8191°
Arg. of periapsis
174.8942°
True anomaly
185.223°
Mean anomaly
185.2728°
Eccentric anomaly
185.24787°
Mean motion
3.54644 °/min
Orbital period
101.51 mins
BSTAR
0.00061303
Loading maneuver chart data...
Computing Atmospheric mass density...
Loading historical data...
Loading historical data...
Loading historical data...
Loading historical data...
Loading historical data...
Loading historical data...
Loading historical data...

Documentation

Showing up to 5 results
|